Stations météo

réclame
Mon MeteoGroup
Hoburg A, Suède (2679): Température de l'air & dewpoint: 19.05.2018 12:00:00 - 25.05.2018 12:00:00 (CEST)Hoburg A, Suède (2679): Vitesse du vent & gusts: 19.05.2018 12:00:00 - 25.05.2018 12:00:00 (CEST)Hoburg A, Suède (2679): Direction du vent: 19.05.2018 12:00:00 - 25.05.2018 12:00:00 (CEST)Hoburg A, Suède (2679): reduced air pressure: 19.05.2018 12:00:00 - 25.05.2018 12:00:00 (CEST)Hoburg A, Suède (2679): visibility: 19.05.2018 12:00:00 - 25.05.2018 12:00:00 (CEST)Hoburg A, Suède (2679): Quantités de précipitations: 19.05.2018 12:00:00 - 25.05.2018 12:00:00 (CEST)
Date & Time tt [°C] td [°C] ff [km/h] ff [knt] fx [km/h] fx [knt] dd ppp [hPa] vv [km] rr [mm]
25.05.2018 12:00:00 18,9 10,2 24 13 34 18 E 1027,3 39 0,0
25.05.2018 11:00:00 18,3 9,9 21 12 36 19 ENE 1027,3 43 0,0
25.05.2018 10:00:00 16,9 9,1 24 13 36 19 ENE 1027,3 42 0,0
25.05.2018 09:00:00 16,9 8,8 23 13 32 17 ENE 1027,2 44 0,0
25.05.2018 08:00:00 16,3 9,2 24 13 32 17 ENE 1027,0 43 0,0
25.05.2018 07:00:00 15,0 8,2 19 10 26 14 ENE 1027,2 50 0,0
25.05.2018 06:00:00 12,5 7,0 20 11 26 14 NE 1027,2 50 0,0
25.05.2018 05:00:00 10,6 6,0 20 11 27 14 NE 1027,2 50 0,0
25.05.2018 04:00:00 9,4 4,8 20 11 28 15 NE 1027,5 50 0,0
25.05.2018 03:00:00 9,6 4,2 20 11 28 15 NE 1027,7 50 0,0
25.05.2018 02:00:00 9,2 3,2 18 10 23 12 NE 1028,0 50 0,0
25.05.2018 01:00:00 9,0 1,9 16 9 21 11 NNE 1028,3 50 0,0
25.05.2018 00:00:00 9,2 -1,8 16 9 19 11 NNE 1028,5 50 0,0
24.05.2018 23:00:00 9,7 0,0 13 7 21 12 NE 1028,4 50 0,0
24.05.2018 22:00:00 11,4 3,4 14 8 21 12 NE 1028,4 50 0,0
24.05.2018 21:00:00 11,7 3,5 13 7 19 11 NE 1028,2 50 0,0
24.05.2018 20:00:00 14,4 1,3 12 7 22 12 NE 1028,2 50 0,0
24.05.2018 19:00:00 16,5 -1,6 13 7 28 15 ENE 1028,5 50 0,0
24.05.2018 18:00:00 18,0 -2,3 14 8 28 15 ENE 1028,6 50 0,0
24.05.2018 17:00:00 18,1 -1,2 20 11 29 16 ENE 1029,1 46 0,0
24.05.2018 16:00:00 20,1 0,5 18 10 29 16 ENE 1029,1 50 0,0
24.05.2018 15:00:00 20,8 -0,5 14 8 22 12 ENE 1029,7 46 0,0
24.05.2018 14:00:00 18,3 8,0 13 7 22 12 W 1030,2 35 0,0
24.05.2018 13:00:00 18,0 8,8 12 6 22 12 W 1030,1 43 0,0
24.05.2018 12:00:00 19,0 10,3 8 5 17 9 SW 1030,4 40 0,0
24.05.2018 11:00:00 17,4 9,8 10 6 24 13 WNW 1030,5 50 0,0
24.05.2018 10:00:00 18,5 8,7 13 7 24 13 N 1030,0 42 0,0
24.05.2018 09:00:00 16,9 5,5 10 5 21 11 NE 1029,8 11 0,0
24.05.2018 08:00:00 14,7 5,2 11 6 21 11 NE 1029,7 10 0,0
24.05.2018 07:00:00 13,4 6,3 12 7 20 11 N 1029,6 43 0,0
24.05.2018 06:00:00 11,6 7,1 11 6 18 10 N 1029,4 50 0,0
24.05.2018 05:00:00 10,4 6,7 13 7 18 10 NNE 1029,1 48 0,0
24.05.2018 04:00:00 9,1 5,8 14 8 17 9 NNE 1028,8 39 0,0
24.05.2018 03:00:00 9,9 6,4 8 4 16 9 N 1028,8 50 0,0
24.05.2018 02:00:00 10,0 7,2 11 6 18 10 NE 1028,5 32 0,0
24.05.2018 01:00:00 11,4 8,3 13 7 18 10 NE 1028,2 40 0,0
24.05.2018 00:00:00 12,1 9,5 13 7 18 10 NE 1028,1 6 0,0
23.05.2018 23:00:00 12,7 9,3 12 6 18 10 NE 1027,7 8 0,0
23.05.2018 22:00:00 13,3 11,2 14 8 18 10 NNW 1027,4 50 0,0
23.05.2018 21:00:00 13,6 10,8 10 6 11 6 NW 1026,7 50 0,0
23.05.2018 20:00:00 15,9 9,3 9 5 13 7 W 1026,1 50 0,0
23.05.2018 19:00:00 16,7 10,1 8 5 16 9 WSW 1025,9 50 0,0
23.05.2018 18:00:00 - - - - 18 10 - - - -
23.05.2018 17:00:00 17,0 9,9 13 7 18 10 W 1025,7 48 0,0
23.05.2018 16:00:00 17,5 10,1 13 7 17 9 W 1025,5 44 0,0
23.05.2018 15:00:00 18,1 11,2 13 7 16 9 SSW 1025,2 42 0,0
23.05.2018 14:00:00 18,4 10,2 11 6 16 9 WSW 1025,3 37 0,0
23.05.2018 13:00:00 18,5 8,7 9 5 15 8 WSW 1024,9 50 0,0
23.05.2018 12:00:00 17,8 9,4 8 4 16 8 W 1024,4 47 0,0
23.05.2018 11:00:00 16,7 9,9 10 5 19 11 WNW 1024,0 45 0,0
23.05.2018 10:00:00 15,2 10,0 11 6 19 11 WNW 1023,4 31 0,0
23.05.2018 09:00:00 15,0 9,8 11 6 16 9 WNW 1022,9 45 0,0
23.05.2018 08:00:00 15,3 8,8 9 5 12 7 W 1022,1 50 0,0
23.05.2018 07:00:00 13,9 10,9 7 4 11 6 WSW 1021,6 49 0,0
23.05.2018 06:00:00 12,0 10,6 8 5 11 6 W 1021,3 23 0,0
23.05.2018 05:00:00 11,2 10,4 8 4 9 5 SSW 1020,7 17 0,0
23.05.2018 04:00:00 11,1 10,3 5 3 9 5 SSE 1020,4 13 0,0
23.05.2018 03:00:00 10,4 8,2 6 3 12 6 W 1020,3 50 0,0
23.05.2018 02:00:00 11,8 10,4 5 3 12 6 NW 1020,2 49 0,0
23.05.2018 01:00:00 12,0 9,4 9 5 12 6 W 1019,8 50 0,0
23.05.2018 00:00:00 12,2 10,1 8 4 10 5 W 1019,5 50 0,0
22.05.2018 23:00:00 12,4 7,9 5 3 7 4 WSW 1019,2 50 0,0
22.05.2018 22:00:00 13,4 4,5 5 3 8 5 SW 1019,1 50 0,0
22.05.2018 21:00:00 13,0 8,7 5 3 8 5 SW 1019,0 50 0,0
22.05.2018 20:00:00 13,9 7,4 4 2 10 5 SW 1018,8 50 0,0
22.05.2018 19:00:00 14,8 5,8 8 4 14 7 NNW 1018,8 50 0,0
22.05.2018 18:00:00 15,2 6,7 8 5 14 7 NW 1019,0 50 0,0
22.05.2018 17:00:00 16,5 6,3 10 5 15 8 WNW 1019,0 50 0,0
22.05.2018 16:00:00 16,7 6,2 10 5 15 8 SW 1019,3 50 0,0
22.05.2018 15:00:00 17,4 6,6 9 5 21 11 S 1019,6 46 0,0
22.05.2018 14:00:00 16,4 6,5 5 3 29 16 WNW 1019,6 46 0,0
22.05.2018 13:00:00 14,4 9,4 18 10 29 16 SE 1020,3 44 0,0
22.05.2018 12:00:00 16,8 7,4 9 5 25 13 ESE 1020,0 50 0,0
22.05.2018 11:00:00 16,2 10,1 17 9 25 13 SSE 1020,6 26 0,0
22.05.2018 10:00:00 19,9 7,9 6 4 13 7 SE 1020,6 43 0,0
22.05.2018 09:00:00 16,4 8,4 9 5 18 10 SE 1020,9 47 0,0
22.05.2018 08:00:00 15,1 8,1 10 6 18 10 SE 1021,1 42 0,0
22.05.2018 07:00:00 15,1 7,9 13 7 18 10 ESE 1021,3 45 0,0
22.05.2018 06:00:00 14,2 7,7 10 5 19 11 E 1021,4 50 0,0
22.05.2018 05:00:00 12,6 7,5 13 7 19 11 E 1021,5 50 0,0
22.05.2018 04:00:00 10,5 7,4 14 8 19 11 E 1021,8 50 0,0
22.05.2018 03:00:00 10,3 7,2 15 8 21 12 ENE 1022,2 50 0,0
22.05.2018 02:00:00 11,1 6,2 15 8 21 12 ENE 1022,7 50 0,0
22.05.2018 01:00:00 12,2 5,1 17 9 21 12 ENE 1023,1 50 0,0
22.05.2018 00:00:00 11,8 4,3 16 9 19 10 ENE 1023,9 50 0,0
21.05.2018 23:00:00 11,8 5,4 14 8 15 8 ENE 1024,3 50 0,0
21.05.2018 22:00:00 12,6 4,6 12 6 15 8 NE 1024,7 50 0,0
21.05.2018 21:00:00 14,4 3,2 10 6 14 8 NNE 1024,7 50 0,0
21.05.2018 20:00:00 15,9 5,5 9 5 10 6 NNW 1024,9 50 0,0
21.05.2018 19:00:00 18,5 3,9 5 3 11 6 NNW 1025,3 50 0,0
21.05.2018 18:00:00 19,2 2,5 4 2 13 7 S 1025,6 49 0,0
21.05.2018 17:00:00 20,1 7,1 4 2 15 8 ESE 1026,1 49 0,0
21.05.2018 16:00:00 19,9 2,3 10 6 16 9 SSE 1026,7 48 0,0
21.05.2018 15:00:00 18,5 4,6 11 6 16 9 SSE 1027,4 45 0,0
21.05.2018 14:00:00 18,3 4,5 10 6 16 9 SSE 1028,0 43 0,0
21.05.2018 13:00:00 18,1 2,8 10 5 16 9 SSE 1028,6 41 0,0
21.05.2018 12:00:00 17,7 2,8 11 6 16 9 SE 1029,2 43 0,0
21.05.2018 11:00:00 16,6 5,8 12 6 16 8 SE 1029,6 42 0,0
21.05.2018 10:00:00 15,7 6,7 8 4 12 6 SSE 1029,6 50 0,0
21.05.2018 09:00:00 14,4 7,9 10 5 12 6 SE 1029,7 50 0,0
21.05.2018 08:00:00 13,9 10,1 8 4 16 9 SE 1029,7 50 0,0
21.05.2018 07:00:00 13,5 6,1 5 3 20 11 E 1029,7 50 0,0
21.05.2018 06:00:00 13,1 5,5 6 3 20 11 NE 1029,4 50 0,0
21.05.2018 05:00:00 13,0 3,9 13 7 23 12 N 1029,1 50 0,0
21.05.2018 04:00:00 12,4 5,1 17 9 23 12 NNW 1029,0 50 0,0
21.05.2018 03:00:00 12,3 4,5 16 9 22 12 NNW 1028,9 50 0,0
21.05.2018 02:00:00 11,1 6,6 17 9 22 12 NW 1028,8 50 0,0
21.05.2018 01:00:00 11,8 6,5 13 7 19 10 NW 1028,8 50 0,0
21.05.2018 00:00:00 12,0 4,9 12 6 18 10 WSW 1028,7 50 0,0
20.05.2018 23:00:00 11,9 4,8 13 7 18 10 W 1028,7 50 0,0
20.05.2018 22:00:00 11,9 3,9 13 7 18 10 W 1028,7 43 0,0
20.05.2018 21:00:00 11,9 4,8 13 7 18 10 W 1028,5 50 0,0
20.05.2018 20:00:00 12,7 4,6 13 7 23 12 W 1028,5 50 0,0
20.05.2018 19:00:00 13,6 3,9 16 8 26 14 W 1028,8 50 0,0
20.05.2018 18:00:00 14,4 3,2 18 10 26 14 W 1028,8 47 0,0
20.05.2018 17:00:00 14,7 3,2 16 9 26 14 W 1029,2 50 0,0
20.05.2018 16:00:00 15,3 2,1 20 11 26 14 WSW 1029,3 32 0,0
20.05.2018 15:00:00 16,2 2,9 19 10 25 13 WSW 1029,2 50 0,0
20.05.2018 14:00:00 16,0 3,7 16 9 22 12 WSW 1029,6 48 0,0
20.05.2018 13:00:00 15,9 3,3 14 8 18 10 WSW 1029,7 48 0,0
20.05.2018 12:00:00 16,0 4,1 12 7 16 9 WSW 1029,6 49 0,0
20.05.2018 11:00:00 16,4 7,9 10 5 14 8 WSW 1029,1 49 0,0
20.05.2018 10:00:00 16,0 7,7 8 5 13 7 W 1029,1 49 0,0
20.05.2018 09:00:00 14,8 5,6 7 4 10 6 NW 1028,8 50 0,0
20.05.2018 08:00:00 13,7 5,1 5 3 13 7 WNW 1028,5 50 0,0
20.05.2018 07:00:00 12,7 4,9 9 5 14 8 NW 1028,2 50 0,0
20.05.2018 06:00:00 11,3 3,6 12 6 16 8 WNW 1027,6 50 0,0
20.05.2018 05:00:00 9,3 3,5 11 6 16 9 W 1027,3 50 0,0
20.05.2018 04:00:00 9,3 3,7 13 7 17 9 W 1027,0 50 0,0
20.05.2018 03:00:00 9,5 3,0 11 6 17 9 W 1026,6 50 0,0
20.05.2018 02:00:00 9,2 3,8 12 6 15 8 W 1026,1 50 0,0
20.05.2018 01:00:00 9,3 4,3 12 6 14 8 W 1026,0 50 0,0
20.05.2018 00:00:00 9,1 3,5 10 5 11 6 W 1025,8 50 0,0
19.05.2018 23:00:00 8,9 5,1 9 5 11 6 WNW 1025,4 50 0,0
19.05.2018 22:00:00 9,1 5,1 9 5 11 6 WNW 1025,3 50 0,0
19.05.2018 21:00:00 10,6 6,0 10 5 13 7 WNW 1025,0 50 0,0
19.05.2018 20:00:00 13,7 -2,7 4 2 16 8 ENE 1024,6 50 0,0
19.05.2018 19:00:00 14,0 4,0 3 2 19 10 NNW 1024,6 50 0,0
19.05.2018 18:00:00 14,8 3,9 11 6 19 10 NW 1024,5 50 0,0
19.05.2018 17:00:00 14,9 3,7 9 5 17 9 SW 1024,5 50 0,0
19.05.2018 16:00:00 15,3 3,7 8 5 17 9 WSW 1024,3 42 0,0
19.05.2018 15:00:00 15,0 3,2 9 5 21 12 WSW 1024,1 50 0,0
19.05.2018 14:00:00 15,2 2,0 16 9 25 13 NNW 1024,1 38 0,0
19.05.2018 13:00:00 14,5 4,5 18 10 33 18 NNW 1024,0 41 0,0
19.05.2018 12:00:00 14,1 5,2 16 9 34 18 N 1023,8 45 0,0

tt = Température de l'air
td = dewpoint
ff = Vitesse du vent
fx = gusts
dd = Direction du vent
ppp = reduced air pressure
vv = visibility
rr = Quantités de précipitations

stations d'obs. à proximité